Location: Rounton
(54.4000°N, 1.3500°W)
Time: 04:20:01
(UTC+00:00)

S-56A Canister/Altair - Pass Details

Date: 04 December 2021
Orbit: 633 x 2499 km, 38.9° (Epoch: 17 January)

Event Time Altitude Azimuth Distance (km) Brightness Sun altitude
Rises 01:11:36 0° 234° (SW) 4,781 - -54.8°
Reaches altitude 10° 01:16:04 10° 221° (SW) 3,424 - -54.5°
Maximum altitude 01:21:43 20° 177° (S) 2,261 - -54.0°
Drops below altitude 10° 01:26:07 10° 131° (SE) 2,586 - -53.6°
Sets 01:28:56 0° 114° (ESE) 3,317 - -53.4°
